Weather History for Bad Axe, MI

Change the Weather History Date:

Thursday, June 27, 2013

  Actual Average (KP58) Record (KP58)
Temperature  
Mean Temperature 74 °F -  
Max Temperature 83 °F 74 °F 90 °F (2007)
Min Temperature 65 °F 58 °F 51 °F (2014)
Cooling Degree Days 9    
Growing Degree Days 24 (Base 50)    
Moisture  
Dew Point 67 °F    
Average Humidity 90    
Maximum Humidity 100    
Minimum Humidity 64    
Precipitation  
Precipitation 0.00 in - - ()
Sea Level Pressure  
Sea Level Pressure 29.73 in    
Wind  
Wind Speed 2 mph (SW)    
Max Wind Speed 15 mph    
Max Gust Speed 25 mph    
Visibility 10 miles    
Events Rain    
Averages and records for this station are not official NWS values.
T = Trace of Precipitation, MM = Missing Value Source: NWS Daily Summary

Daily Weather History Graph

Daily Weather History Graph

Search for Another Location

Airport:

Trip Planner

Search our weather history database for the weather conditions in past years. The results will help you decide how hot, cold, wet, or windy it might be!

Date:

Astronomy

Jun. 27, 2013 Rise Set
Actual Time 5:51 AM EDT 9:18 PM EDT
Civil Twilight 5:15 AM EDT 9:54 PM EDT
Nautical Twilight 4:28 AM EDT 10:41 PM EDT
Astronomical Twilight 3:28 AM EDT 11:40 PM EDT
Moon No Moon Rise 11:01 AM EDT (6/27)
Length of Visible Light 16h 38m
Length of Day
15h 26m
Waning Gibbous, 76% of the Moon is Illuminated
Jun 27
Waning Gibbous
Jun 30
Last Quarter
Jul 8
New
Jul 15
First Quarter
Jul 22
Full

Hourly Weather History & Observations

Time (EDT) Temp. Heat Index Dew Point Humidity Pressure Visibility Wind Dir Wind Speed Gust Speed Precip Events Conditions
12:13 AM 68.5 °F - 65.8 °F 91% 29.80 in 10.0 mi South 3.5 mph - N/A   Clear
12:34 AM 67.5 °F - 65.7 °F 94% 29.80 in 10.0 mi Calm Calm - N/A   Clear
12:53 AM 66.6 °F - 64.9 °F 95% 29.79 in 10.0 mi Calm Calm - N/A   Clear
1:13 AM 67.3 °F - 66.0 °F 96% 29.77 in 10.0 mi Calm Calm - N/A   Clear
1:33 AM 68.0 °F - 66.2 °F 94% 29.77 in 10.0 mi Calm Calm - N/A   Clear
1:53 AM 69.1 °F - 66.2 °F 91% 29.77 in 10.0 mi Calm Calm - N/A   Clear
2:13 AM 69.1 °F - 66.2 °F 91% 29.77 in 10.0 mi Calm Calm - N/A   Clear
2:33 AM 69.8 °F - 66.2 °F 88% 29.77 in 10.0 mi Calm Calm - N/A   Clear
2:53 AM 69.8 °F - 66.2 °F 88% 29.77 in 10.0 mi Calm Calm - N/A   Clear
3:13 AM 68.5 °F - 65.7 °F 90% 29.76 in 10.0 mi NNE 4.6 mph - N/A   Clear
3:33 AM 68.2 °F - 66.2 °F 93% 29.76 in 10.0 mi Calm Calm - N/A   Clear
3:53 AM 68.5 °F - 66.4 °F 93% 29.75 in 10.0 mi East 4.6 mph - N/A   Clear
4:14 AM 69.1 °F - 66.4 °F 91% 29.76 in 10.0 mi West 4.6 mph - N/A   Scattered Clouds
4:33 AM 68.4 °F - 66.4 °F 93% 29.77 in 10.0 mi West 3.5 mph - N/A   Overcast
4:53 AM 68.0 °F - 66.4 °F 95% 29.77 in 10.0 mi Calm Calm - N/A   Scattered Clouds
5:14 AM 67.5 °F - 66.2 °F 96% 29.75 in 10.0 mi Calm Calm - N/A   Scattered Clouds
5:33 AM 66.4 °F - 65.3 °F 96% 29.75 in 10.0 mi Calm Calm - N/A   Clear
5:53 AM 66.4 °F - 65.3 °F 96% 29.75 in 10.0 mi Calm Calm - N/A   Clear
6:14 AM 66.2 °F - 65.8 °F 99% 29.76 in 10.0 mi Calm Calm - N/A   Clear
6:33 AM 66.2 °F - 65.7 °F 98% 29.76 in 10.0 mi Calm Calm - N/A   Clear
6:53 AM 66.2 °F - 66.2 °F 100% 29.76 in 10.0 mi Calm Calm - N/A   Clear
7:14 AM 67.1 °F - 67.1 °F 100% 29.77 in 10.0 mi Calm Calm - N/A   Clear
7:33 AM 68.4 °F - 68.0 °F 99% 29.77 in 10.0 mi Calm Calm - N/A   Clear
7:53 AM 69.1 °F - 68.5 °F 98% 29.76 in 10.0 mi Calm Calm - N/A   Clear
8:14 AM 70.0 °F - 69.1 °F 97% 29.76 in 10.0 mi Calm Calm - N/A   Clear
8:33 AM 71.1 °F - 69.3 °F 94% 29.76 in 10.0 mi Calm Calm - N/A   Clear
8:53 AM 72.9 °F - 70.2 °F 91% 29.75 in 10.0 mi South 3.5 mph - N/A   Clear
9:14 AM 74.1 °F - 70.2 °F 87% 29.75 in 10.0 mi Calm Calm - N/A   Clear
9:33 AM 75.6 °F - 71.4 °F 87% 29.75 in 10.0 mi SSW 3.5 mph - N/A   Clear
9:53 AM 76.1 °F - 71.1 °F 84% 29.75 in 10.0 mi Calm Calm - N/A   Clear
10:13 AM 77.2 °F - 71.6 °F 83% 29.75 in 10.0 mi SSE 3.5 mph - N/A   Clear
10:33 AM 78.1 °F - 71.2 °F 79% 29.74 in 10.0 mi Calm Calm - N/A   Clear
10:54 AM 79.3 °F - 70.9 °F 75% 29.74 in 10.0 mi Calm Calm - N/A   Clear
11:14 AM 80.4 °F 83.8 °F 70.2 °F 71% 29.74 in 10.0 mi Calm Calm - N/A   Clear
11:33 AM 81.3 °F 85.0 °F 70.2 °F 69% 29.74 in 10.0 mi Calm Calm - N/A   Scattered Clouds
11:54 AM 81.0 °F 84.1 °F 69.3 °F 67% 29.74 in 10.0 mi South 3.5 mph - N/A   Mostly Cloudy
12:14 PM 81.9 °F 85.2 °F 69.1 °F 65% 29.73 in 10.0 mi SSE 3.5 mph - N/A   Mostly Cloudy
12:33 PM 81.9 °F 85.2 °F 69.3 °F 65% 29.72 in 10.0 mi East 4.6 mph - N/A   Scattered Clouds
12:54 PM 82.8 °F 86.4 °F 69.4 °F 64% 29.71 in 10.0 mi SSE 5.8 mph - N/A   Scattered Clouds
1:13 PM 83.5 °F 87.7 °F 70.3 °F 64% 29.71 in 10.0 mi SSE 6.9 mph - N/A   Mostly Cloudy
1:33 PM 82.0 °F 85.9 °F 70.2 °F 67% 29.71 in 10.0 mi SE 8.1 mph - N/A   Scattered Clouds
1:54 PM 82.6 °F 86.6 °F 70.3 °F 66% 29.69 in 10.0 mi SSE 8.1 mph - N/A   Scattered Clouds
2:13 PM 81.0 °F 83.9 °F 68.7 °F 66% 29.70 in 10.0 mi East 6.9 mph - N/A   Mostly Cloudy
2:33 PM 79.0 °F - 68.0 °F 69% 29.67 in 10.0 mi East 8.1 mph - N/A   Overcast
2:54 PM 75.7 °F - 68.4 °F 78% 29.71 in 10.0 mi NNE 15.0 mph 25.3 mph N/A Rain Light Rain
3:14 PM 70.5 °F - 68.7 °F 94% 29.75 in 1.5 mi West 4.6 mph - N/A Rain Heavy Rain
3:33 PM 68.5 °F - 68.0 °F 98% 29.75 in 1.8 mi NNW 8.1 mph - N/A Rain Heavy Rain
3:53 PM 67.8 °F - 67.6 °F 99% 29.75 in 3.0 mi SSE 13.8 mph 19.6 mph N/A Rain Rain
4:13 PM 65.3 °F - 64.9 °F 99% 29.72 in 10.0 mi South 5.8 mph - N/A Rain Light Rain
4:34 PM 65.7 °F - 65.1 °F 98% 29.73 in 10.0 mi Calm Calm - N/A Rain Light Rain
4:54 PM 66.2 °F - 65.7 °F 98% 29.72 in 10.0 mi Calm Calm - N/A Rain Rain
5:13 PM 65.8 °F - 65.5 °F 99% 29.70 in 10.0 mi Calm Calm - N/A Rain Light Rain
5:34 PM 67.1 °F - 66.2 °F 97% 29.70 in 10.0 mi South 3.5 mph - N/A Rain Light Rain
5:54 PM 67.3 °F - 66.0 °F 96% 29.70 in 10.0 mi Calm Calm - N/A   Scattered Clouds
6:13 PM 68.0 °F - 66.7 °F 96% 29.70 in 10.0 mi West 3.5 mph - N/A   Clear
6:34 PM 68.4 °F - 67.1 °F 96% 29.70 in 10.0 mi Calm Calm - N/A   Clear
6:53 PM 68.9 °F - 67.3 °F 95% 29.71 in 10.0 mi WNW 3.5 mph - N/A   Clear
7:13 PM 68.9 °F - 67.5 °F 95% 29.72 in 10.0 mi West 4.6 mph - N/A   Clear
7:34 PM 68.7 °F - 67.6 °F 96% 29.71 in 10.0 mi WNW 3.5 mph - N/A   Scattered Clouds
7:53 PM 68.4 °F - 67.6 °F 98% 29.70 in 10.0 mi West 3.5 mph - N/A   Scattered Clouds
8:14 PM 68.0 °F - 67.3 °F 98% 29.70 in 10.0 mi West 4.6 mph - N/A   Clear
8:34 PM 67.6 °F - 67.1 °F 98% 29.70 in 10.0 mi West 4.6 mph - N/A   Scattered Clouds
8:53 PM 67.5 °F - 66.7 °F 98% 29.71 in 10.0 mi WNW 3.5 mph - N/A Rain Light Rain
9:14 PM 67.3 °F - 66.6 °F 98% 29.71 in 10.0 mi Calm Calm - N/A   Light Drizzle
9:34 PM 67.1 °F - 66.6 °F 98% 29.71 in 10.0 mi Calm Calm - N/A   Drizzle
9:53 PM 66.6 °F - 66.2 °F 99% 29.70 in 10.0 mi Calm Calm - N/A   Light Drizzle
10:14 PM 66.0 °F - 66.0 °F 100% 29.69 in 10.0 mi North 3.5 mph - N/A   Clear
10:34 PM 65.7 °F - 65.7 °F 100% 29.69 in 10.0 mi North 4.6 mph - N/A   Clear
10:53 PM 65.7 °F - 65.7 °F 100% 29.69 in 10.0 mi Calm Calm - N/A   Scattered Clouds
11:14 PM 65.3 °F - 65.3 °F 100% 29.68 in 10.0 mi Calm Calm - N/A   Mostly Cloudy
11:34 PM 66.2 °F - 66.2 °F 100% 29.68 in 4.0 mi Calm Calm - N/A   Overcast
11:53 PM 66.2 °F - 66.2 °F 100% 29.68 in 4.0 mi Calm Calm - N/A   Overcast